Regional Weather Roundup
Issued by NWS Midland/Odessa, TX

Skip options and go directly to product.
Home | Oldest Version | Previous Version | Current Version | All | Text Only | Save Text | Print | Product List | Glossary On

Skip product version selection by date and time.   
535
ASUS44 KMAF 030510
RWRMAF
MIDLAND AREA WEATHER ROUNDUP
NATIONAL WEATHER SERVICE MIDLAND TX
1200 AM CDT TUE MAY 03 2016

...IN SOUTHWEST TEXAS AND SOUTHEAST NEW MEXICO...

CITY           SKY/WX    TMP DP  RH WIND       PRES   REMARKS
ALPINE         CLEAR     48  33  56 CALM      30.23S
ANDREWS        FAIR      54  34  47 SE5       30.15S
ARTESIA        CLEAR     54  32  43 SW10      30.14S
BIG SPRING     CLEAR     52  37  56 E6        30.16S
CARLSBAD       CLEAR     50  31  48 SW8       30.13R
DRYDEN           N/A     57  41  55 NE7       30.11R
FORT STOCKTON  CLEAR     55  38  52 S8        30.14R
GUAD PASS      CLEAR     50  32  50 NE22      30.20R
HOBBS          CLEAR     50  32  50 SE7       30.16S
MARFA          CLEAR     49  34  56 NE3       30.20R
MIDLAND AIRPK  CLEAR     59  42  52 SE6       30.14F
MIDLAND INTL   CLEAR     57  41  55 SE8       30.13F
ODESSA         CLEAR     59  40  49 SE9       30.14S
PECOS          CLEAR     55  33  43 CALM      30.12S
PRESIDIO       FAIR      65  39  38 MISG      30.10R
SEMINOLE       CLEAR     53  34  48 SE5       30.16S
SNYDER           N/A     53  40  61 E6        30.15S
WINK           CLEAR     54  34  46 E6        30.12R
$$
...OTHER STATIONS IN TEXAS...

CITY           SKY/WX    TMP DP  RH WIND       PRES   REMARKS
ABILENE        CLEAR     51  48  89 S6        30.14F
AMARILLO       CLEAR     46  37  71 SE8       30.14F
AUSTIN         MOCLDY    58  52  80 NW6       30.10F
BROWNSVILLE    CLOUDY    71  58  63 N10       30.04S
CORPUS CHRISTI CLOUDY    67  53  61 N15       30.06S
DALLAS FTW     CLEAR     55  46  71 N3        30.11F
DEL RIO        CLEAR     57  52  83 E5        30.10S
EL PASO        CLEAR     63  31  30 E10       30.10S
HOUSTON INT    MOCLDY    62  56  80 N9        30.04F
LUBBOCK        CLEAR     49  32  52 E7        30.15R
SAN ANGELO     CLEAR     51  46  83 S6        30.13F
SAN ANTONIO    CLOUDY    59  50  72 N8        30.11S
WACO           CLEAR     54  50  86 N6        30.12S
WICHITA FALLS  NOT AVBL
$$
...OTHER LOCATIONS IN NEW MEXICO...

CITY           SKY/WX    TMP DP  RH WIND       PRES   REMARKS
ALAMAGORDO     CLEAR     57  27  30 CALM      30.13R
ALBUQUERQUE    CLOUDY    57  35  43 W9        30.18S
CANNON AFB     CLEAR     47  35  63 SE7       30.15F
CLOVIS         CLEAR     48  34  57 SE6       30.17S
HOLLOMAN AFB   CLEAR     58  27  30 SE5       30.11S
ROSWELL        CLEAR     52  32  46 W5        30.14R
RUIDOSO          N/A     45  32  61 CALM      30.26S
SANTA FE       CLOUDY    46  30  53 CALM      30.19S
TRUTH OR CONSE CLEAR     57  28  33 E5        30.13R
TUCUMCARI      CLEAR     47  38  71 S7        30.13R
$$

USA.gov is the U.S. government's official web portal to all federal, state and local government web resources and services.